Location: Bretagne
(43.8474°N, 0.4650°W)
Time: 20:28:39
(UTC+00:00)

Cosmos 1484 Rocket - Pass Details

Date: 15 January 2026
Orbit: 439 x 467 km, 97.6° (Epoch: 13 February)

Event Time Altitude Azimuth Distance (km) Brightness Sun altitude
Rises 17:20:15 0° 179° (S) 2,421 6.4 -5.7°
Reaches altitude 10° 17:22:19 10° 186° (S) 1,553 5.5 -6.1°
Maximum altitude 17:25:31 45° 260° (W) 610 3.7 -6.6°
Drops below altitude 10° 17:28:45 10° 335° (NNW) 1,561 5.2 -7.1°
Sets 17:30:50 0° 342° (NNW) 2,436 6.1 -7.5°
